Find Starlink 5646

NORAD ID: 55461 Int'l Des: 2023-015 Owner: SPXS Country: US Constellation: starlink operational
LEOCIRCULAR

当前视图

正在加载3D地球...

About Starlink 5646

Starlink 5646 (NORAD 55461) is a starlink constellation satellite (v1.5) launched Feb 2, 2023 by SPXS of US. It operates in LEO, CIRCULAR orbit with a mass of 305.00 kg.

关于 Starlink 5646

正在加载描述...

即将过境

Passes for default location (London). Set your location on the main map for personalized predictions.

高度历史

Loading altitude history...

两行轨道根数

1 55461U 23015N 26171.16117635 .00000320 00000-0 21155-4 0 9992
2 55461 43.0049 110.0252 0001722 268.8088 91.2566 15.27575230186399
Epoch: Jun 20, 2026 • Age: 21 hours

当前状态

高度 485.4 km
速度 7.63 km/s
星下点 34.91°N, 123.72°W
发射日期 Feb 2, 2023
运行时间 3.3 years
类型 internet

技术详情

分类 Payload
质量 305.00 kg
干质量 290.00 kg
总质量 305.00 kg
长度 0.20 m
直径 2.80 m
跨度 9.00 m
形状 Box + pan
制造商 SPXS
平台类型 Starlink
阶段状态 In Orbit
所有者/国家 SPXS/US

Most Searched